Weather in Peremilovo

Russia / Ivanovo Oblast     57°15′07″N   41°30′49″E
temp.,
°C
wind,
m/s
gust,
m/s
humid.,
%
clouds,
%
prec.,
mm/h
press.,
hPa
HPBL,
m
29 june, wed
wed2900:00+9ne34710 0.0 102462
03:00+8ne22740 0.0 102522
06:00+11nne24705 0.0 1025141
09:00+15nne345275 0.0 1024950
12:00+18n334314 0.0 10231503
15:00+19nw34420 0.0 10221605
18:00+19nw35562 0.0 1020442
21:00+13nw337353 0.0 102022
30 june, thu
thu3000:00+11nw337082 0.0 102029
03:00+11nw357291 0.0 101980
06:00+12nnw487429 0.0 1019218
09:00+17nnw57555 0.0 1017741
12:00+20nnw68424 0.0 10171687
15:00+22n69455 0.0 10162472
18:00+20nnw595736 0.0 1016576
21:00+15n46694 0.0 101787
1 july, fri
fri100:00+11ne47730 0.0 1019106
03:00+9ne36760 0.0 102084
06:00+11ne37725 0.0 1021211
09:00+16ne4550100 0.0 10211124
12:00+19nne35415 0.0 10211866
15:00+21nnw45405 0.0 10202124
18:00+21nw365611 0.0 1019388
21:00+15nw336916 0.0 101919
2 july, sat
sat200:00+13wnw3470100 0.0 101964
03:00+14wnw3670100 0.0 1018114
06:00+13wsw2596100 7.0 1018148
09:00+18wsw467567 7.1 1017495
12:00+21wnw2367100 0.0 10161146
15:00+21e226917 0.0 1016632
18:00+22e236717 0.0 1015939
21:00+17se12840 0.1 101611
3 july, sun
sun300:00+16ne11845 0.0 101611
03:00+14w00866 0.0 101711
06:00+17nw128193 0.0 101784
09:00+21wnw127128 0.0 1017346
12:00+25wnw2353100 0.0 10161419
15:00+25wnw235755 0.0 10151152
18:00+24nw1170100 0.0 101519
21:00+21wsw2271100 0.0 101524